Home > Time Zones > World Clock > Weather > India > Tonk > Past weeks

Flag for India Weather past 2 weeks in Tonk, Rajasthan, India

Now
48 °F

Fog.


Feels Like: 48 °F
Forecast: 46 / 71 °F
Wind: 2 mph from North

Location: Jaipur / Sanganer

Current Time: Dec 25, 2014 at 6:31:24 AM

Latest Report: Dec 25, 2014 at 5:00 AM


Visibility: 0 mi

Pressure: 30.09 "Hg

Humidity: 100%

Dew point: 48 °F

Location of TonkLocation

Historic Weather in Tonk — Graph

°F

Tonk temperature yesterday

Maximum temperature yesterday: 70 °F (at 2:00 PM)
Minimum temperature yesterday: 46 °F (at 6:30 AM)
Average temperature yesterday: 58 °F

Past Weeks' High & Low Weather Summary

 TemperatureHumidityPressure
High75 °F (Dec 10, 1:00 PM)100% (Dec 14, 8:00 AM)30.24 "Hg (Dec 14, 8:00 AM)
Low43 °F (Dec 21, 7:00 AM)12% (Dec 11, 3:00 PM)29.71 "Hg (Dec 12, 3:00 PM)
Average59 °F63%30.08 "Hg
* Reported Dec 10 5:00 AM — Dec 25 5:00 AM, Tonk, Weather by CustomWeather, © 2014

Note: Actual official high and low records may vary slightly from our data, if they occured in-between our weather recording intervals... More about our weather records

Advertising

Tonk weather history for previous 24 hours

 ConditionsComfort  
Time TempWeatherWind HumidityBarometerVisibility
5:00 AM
Dec 25
48 °FFog.2 mph100%30.09 "Hg1 mi
3:00 AM50 °FFog.2 mph100%30.09 "Hg1 mi
2:00 AM52 °FFog.3 mph94%30.09 "Hg1 mi
1:00 AM52 °FFog.1 mph94%30.12 "Hg1 mi
12:00 AM55 °FFog.3 mph82%30.12 "Hg1 mi
11:00 PM
Dec 24
55 °FFog.1 mph82%30.15 "Hg1 mi
10:00 PM57 °FFog.5 mph77%30.15 "Hg1 mi
9:00 PM57 °FFog.8 mph77%30.12 "Hg1 mi
8:00 PM59 °FFog.5 mph68%30.12 "Hg1 mi
5:00 PM68 °FClear.5 mph49%30.09 "Hg1 mi
4:00 PM70 °FClear.6 mph46%30.07 "Hg1 mi
3:00 PM70 °FClear.5 mph43%30.09 "Hg1 mi
2:00 PM70 °FMild.N/A46%30.09 "HgN/A
1:00 PM66 °FClear.5 mph52%30.12 "Hg1 mi
12:00 PM63 °FFog.7 mph59%30.15 "Hg1 mi
11:00 AM61 °FFog.6 mph68%30.18 "Hg1 mi
9:00 AM52 °FFog.6 mph100%30.15 "Hg0 mi
7:30 AM46 °FFog.3 mph100%30.12 "Hg0 mi
6:30 AM46 °FFog.No wind100%30.09 "Hg0 mi
6:00 AM48 °FFog.No wind100%30.09 "Hg0 mi
Weather by CustomWeather, © 2014

See weather overviewHow to use our weather pages